Theta_e
314 315 315 315 313 314 315 314 314 316 316 314 309 306 302 300 298 295 293 292 291 289 288 287 286 285 284 283 283 283 285 288 295 300 304 309 310 312 314 313 313 312 312 313
314 314 315 315 315 315 314 313 315 315 316 312 307 304 300 297 295 294 292 290 289 288 287 286 285 284 283 282 282 282 282 284 286 290 294 296 304 307 308 310 312 312 311 311
315 315 313 314 315 314 314 314 313 316 314 311 305 303 299 296 294 293 291 290 288 288 287 286 285 284 283 282 282 282 282 282 283 287 292 301 306 305 306 305 305 308 310 309
314 314 314 315 315 313 314 314 315 316 314 316 311 314 302 297 294 292 290 288 287 286 285 285 284 283 283 283 283 283 282 281 282 283 284 285 285 287 287 291 297 304 305 304
316 313 314 315 314 313 315 315 315 316 315 315 314 315 304 299 296 291 288 287 285 285 284 283 283 282 282 281 281 281 282 281 281 281 281 282 282 283 285 290 295 298 300 300
314 313 314 314 314 314 314 315 315 316 316 318 316 317 307 301 295 291 287 286 285 284 283 282 282 281 280 280 280 280 280 280 281 281 280 280 280 281 282 284 286 288 291 293
314 314 312 313 314 314 315 317 320 321 321 320 316 317 299 292 290 289 287 285 284 282 282 281 280 280 279 278 278 278 278 278 279 279 280 280 279 279 279 280 281 282 284 286
315 317 314 313 315 316 315 317 319 322 320 317 314 308 295 290 288 287 286 284 283 282 281 280 279 278 278 277 276 276 276 277 277 277 278 279 279 279 279 278 279 279 280 281
315 317 309 308 311 312 316 316 315 317 317 316 302 293 291 289 288 287 285 283 282 280 279 279 278 277 276 275 275 274 275 274 275 275 276 276 277 277 278 278 278 278 279 279
311 316 310 307 310 310 313 311 317 317 320 318 309 300 296 291 288 287 284 282 281 279 278 277 276 276 275 274 273 273 273 273 273 273 273 275 275 275 274 275 275 276 277 278
303 310 304 308 302 306 312 314 313 313 316 317 313 298 291 290 288 285 283 281 279 277 276 275 275 274 273 272 272 272 271 271 271 271 271 272 273 273 272 272 272 273 273 274
299 302 303 302 299 299 299 301 304 312 313 308 308 293 287 285 283 283 281 280 278 276 275 274 273 273 272 271 270 270 270 270 269 270 270 270 271 272 271 270 271 271 272 273
297 299 300 302 301 300 299 297 299 302 303 305 304 291 284 283 282 280 279 277 276 276 274 273 272 272 271 270 269 269 269 269 269 269 269 269 269 271 270 270 271 271 271 272
298 299 300 302 301 300 299 296 296 296 296 296 289 284 281 280 279 277 275 274 272 271 271 271 271 271 270 270 269 269 268 268 268 268 268 268 269 270 269 269 270 270 270 270
298 297 298 294 295 295 293 293 293 294 287 291 284 281 276 272 272 271 271 273 272 270 269 267 269 270 269 269 268 268 267 267 267 267 268 268 268 269 268 269 269 269 269 270
293 296 295 294 291 293 290 288 289 289 286 282 280 276 272 272 271 272 270 271 271 268 267 268 269 269 268 268 267 268 267 267 267 267 267 268 268 268 268 268 268 269 269 269
293 294 293 291 291 292 289 282 286 285 280 281 286 277 275 275 275 271 269 269 268 266 265 266 268 268 267 267 267 267 267 267 267 267 267 268 268 267 267 268 268 268 268 268
293 294 295 289 293 290 280 280 280 281 278 278 276 273 272 271 269 268 267 266 264 264 265 268 268 267 267 267 267 267 267 267 267 267 267 268 267 267 267 267 267 267 267 268
293 294 289 289 290 283 280 277 277 278 276 271 271 271 270 268 266 268 266 269 267 268 268 268 268 268 268 268 267 267 267 267 267 267 267 267 266 266 266 266 266 266 267 267
291 292 293 290 289 288 278 275 273 271 279 270 269 268 267 267 271 267 264 268 268 268 268 268 268 268 267 267 267 267 267 267 267 267 266 266 266 266 266 265 266 266 266 266
291 290 289 290 284 276 273 271 271 279 278 269 268 266 265 266 266 263 267 267 268 268 268 268 268 267 267 267 267 267 267 266 266 266 265 265 265 265 265 265 265 265 265 266
284 285 285 283 283 284 272 270 276 269 266 264 265 265 265 263 263 264 266 267 267 268 268 268 267 267 267 266 267 267 266 266 266 265 265 265 265 264 265 264 265 265 265 265
280 274 278 275 275 269 266 267 264 262 262 264 264 263 263 262 264 265 266 266 267 268 267 267 267 267 266 266 267 266 266 266 265 265 265 264 264 264 264 264 265 264 265 265
271 270 272 271 269 268 265 263 261 261 261 260 263 261 263 262 263 265 266 267 267 267 267 267 266 266 266 267 266 266 265 265 265 265 264 264 264 264 265 264 264 264 264 264
270 271 270 268 266 263 262 262 262 260 263 261 263 264 264 265 266 266 267 267 266 266 266 266 266 266 267 266 266 265 265 265 265 264 264 264 264 264 264 264 264 264 265 265
269 268 271 273 262 263 263 261 263 260 260 264 264 265 266 266 266 267 266 266 266 266 266 266 267 266 266 265 265 265 265 264 264 264 264 264 264 264 263 263 263 264 265 266
Wind_Speed
7 4 8 9 12 14 8 5 5 11 17 14 17 15 10 10 11 12 12 12 12 14 20 22 25 27 30 34 36 37 38 36 31 26 21 15 18 20 6 4 6 4 3 3
4 9 9 10 8 10 8 8 5 9 14 15 15 13 11 11 12 11 11 12 12 12 14 22 25 28 31 30 33 37 37 37 36 28 22 11 16 14 15 12 8 5 4 5
7 1 14 10 5 5 6 6 7 9 6 17 18 7 10 11 13 13 13 12 12 13 14 18 24 27 28 30 31 32 35 35 37 33 27 19 9 16 17 22 23 16 9 7
5 7 4 4 7 7 7 8 8 7 8 5 13 4 8 12 11 12 12 11 11 12 13 19 22 25 28 28 28 29 32 35 38 38 35 31 23 19 18 20 18 18 17 14
3 5 5 6 6 9 3 3 5 5 6 4 9 2 6 12 10 10 10 11 11 12 12 17 21 23 25 28 29 30 29 32 34 38 37 32 28 24 24 22 19 18 16 16
1 3 3 2 4 2 7 5 4 1 2 4 9 8 7 4 10 11 10 10 11 11 13 19 21 22 24 26 28 28 29 31 31 31 34 35 32 30 32 31 29 26 22 20
6 5 3 1 5 3 3 7 3 2 2 5 5 6 5 9 10 11 10 10 10 10 10 16 19 21 23 26 27 27 28 29 30 31 29 30 31 29 26 28 28 28 29 27
7 4 6 6 1 5 7 6 4 6 5 3 3 4 6 10 10 10 11 10 9 10 9 15 19 20 22 24 26 27 27 27 29 28 28 27 27 26 25 25 24 25 26 25
7 4 4 6 4 2 5 5 3 3 2 1 6 5 4 9 8 10 9 9 8 9 10 14 18 20 22 24 25 26 26 26 27 27 26 26 26 25 25 24 24 25 25 23
3 4 1 2 3 1 2 3 2 2 3 5 5 6 6 11 9 9 8 7 7 9 9 14 17 19 20 21 22 23 24 24 24 25 25 23 24 24 24 23 25 25 24 25
4 1 2 2 6 4 2 2 2 1 2 2 2 3 7 9 9 9 7 7 7 7 7 12 16 17 18 18 21 21 23 24 26 25 26 25 23 24 24 26 25 25 25 25
3 2 4 5 3 6 4 4 4 2 1 2 2 3 7 9 8 7 7 8 6 7 7 12 14 14 16 17 20 21 23 23 26 24 25 25 23 24 26 28 26 26 25 25
2 1 4 3 2 3 5 3 2 1 1 2 3 3 6 6 7 6 7 7 5 6 6 12 15 16 17 18 22 22 24 24 26 26 26 27 26 23 26 28 25 26 25 25
1 4 3 4 4 3 4 4 3 3 3 2 2 7 4 4 6 6 5 3 2 3 4 7 11 14 17 18 21 20 24 24 25 25 25 26 25 23 26 27 25 26 26 26
3 4 5 7 8 6 6 6 7 4 1 3 2 5 3 4 1 3 4 3 4 4 5 6 13 18 19 20 23 21 26 26 25 24 24 24 23 21 26 27 26 27 26 25
3 4 3 3 6 6 5 7 5 7 4 6 6 2 2 2 3 2 4 4 2 4 5 8 17 20 22 25 25 26 28 27 26 25 25 23 21 22 25 24 25 26 27 28
3 4 2 2 4 5 3 4 5 5 6 2 2 3 3 2 2 1 3 3 2 4 5 10 17 20 22 25 23 28 27 26 26 26 26 24 23 25 25 24 24 24 26 26
5 3 3 3 2 1 2 3 3 6 5 5 9 4 2 2 4 4 2 3 3 5 6 16 19 22 24 23 22 25 23 24 24 25 24 22 25 26 27 27 26 27 26 25
5 3 3 4 3 2 1 1 2 3 1 2 5 2 2 5 2 2 3 2 6 12 16 19 19 20 22 20 23 21 23 22 23 23 22 22 24 26 26 26 27 27 27 26
4 5 3 2 4 5 3 3 2 1 2 3 4 2 1 6 3 3 2 8 13 16 16 18 19 20 20 22 20 20 22 22 22 21 21 22 23 23 25 27 27 26 26 25
3 3 2 2 3 3 3 3 2 5 4 4 3 2 1 1 4 4 17 16 18 18 19 19 18 20 20 20 19 22 22 22 22 20 22 22 22 24 25 25 25 25 26 25
1 3 1 2 4 4 4 4 5 4 1 4 2 1 2 4 6 5 12 14 17 19 18 17 18 19 19 19 20 21 22 21 21 22 22 22 23 23 22 23 24 24 23 25
0 2 4 3 3 2 3 3 2 3 4 1 0 2 1 5 5 7 9 16 18 19 19 19 19 21 21 21 18 22 21 23 23 23 23 24 23 22 22 24 23 22 22 22
1 1 3 4 4 3 2 2 4 2 3 2 5 3 3 6 7 8 14 15 18 18 19 20 21 21 23 21 22 23 24 23 24 24 24 24 23 24 22 21 21 21 23 22
3 2 4 2 3 3 3 3 6 3 1 4 8 10 10 11 10 13 15 16 18 20 20 20 21 23 23 25 26 25 24 25 26 24 24 23 23 23 23 22 23 23 24 24
1 5 3 3 4 4 3 2 5 2 4 7 7 7 13 15 15 16 18 19 19 21 22 22 21 23 25 25 26 27 26 24 25 25 23 22 23 24 23 23 25 24 25 27
Wind_Direction
200 186 202 206 227 268 315 250 166 122 119 93 116 119 104 81 79 74 61 53 50 49 39 34 32 27 25 25 24 22 23 24 26 26 18 16 17 27 20 344 330 309 337 300
146 229 219 220 229 238 269 295 102 112 137 102 120 109 104 92 82 76 70 57 47 42 35 33 31 27 27 23 23 23 23 23 26 27 20 9 13 14 25 26 1 323 307 337
169 330 204 240 211 241 241 229 259 146 122 120 123 115 124 115 104 87 73 64 53 44 37 33 31 30 27 25 22 22 23 24 27 31 31 35 42 32 34 30 28 22 1 349
240 233 180 186 214 199 237 215 257 134 143 182 202 164 158 138 103 79 68 57 51 47 42 35 32 32 28 25 23 24 23 24 28 31 36 37 33 23 359 4 14 36 42 37
204 142 187 181 202 197 206 349 160 227 181 338 216 284 125 142 116 89 70 60 49 47 44 36 33 32 29 26 24 24 25 26 24 29 35 33 29 22 18 14 11 14 22 27
14 349 188 227 58 6 126 117 96 108 164 257 208 182 169 161 119 104 81 63 52 43 41 38 33 31 29 26 24 23 24 25 24 23 25 30 29 23 22 20 17 10 5 0
179 178 99 258 107 16 225 155 131 176 210 228 196 180 69 99 73 89 87 71 58 45 40 35 30 27 25 24 23 21 21 22 20 22 24 22 22 24 21 18 15 12 9 6
178 180 153 167 309 179 199 202 168 209 190 207 166 111 131 106 103 97 91 78 60 49 39 36 32 27 23 21 20 19 19 19 18 18 18 20 20 17 15 14 11 11 7 4
193 129 85 32 1 21 181 226 352 323 258 265 125 89 110 131 122 106 86 71 58 44 39 33 31 27 21 18 17 16 15 14 14 13 12 13 14 15 12 9 8 3 2 357
40 110 13 122 282 96 357 341 128 228 226 226 137 132 131 168 142 112 84 64 52 48 38 30 26 26 21 17 12 11 12 10 8 8 10 7 7 7 8 6 3 1 358 356
9 70 104 165 24 360 22 185 253 271 259 242 183 123 351 111 100 104 89 76 58 53 38 27 20 19 15 10 8 5 6 3 6 4 4 5 359 360 358 0 359 357 354 355
52 40 84 79 79 26 58 34 12 127 306 56 123 155 73 82 74 79 90 71 52 55 39 26 14 8 5 2 359 359 360 358 0 358 358 358 356 351 353 354 352 352 350 350
326 355 107 125 170 92 62 11 357 135 36 251 132 170 106 104 98 70 55 59 28 39 25 10 2 360 357 354 354 354 355 353 353 353 352 353 353 348 346 348 347 347 346 343
343 62 79 163 93 97 103 57 19 68 102 290 88 144 164 88 72 38 20 359 17 83 52 0 350 349 346 346 347 348 347 348 348 347 346 346 347 344 340 343 344 343 343 340
63 97 85 57 72 66 70 54 28 74 76 121 180 114 169 118 111 257 251 4 19 24 11 344 339 341 341 341 343 341 343 343 343 343 342 342 343 340 338 342 342 340 339 338
357 112 103 78 61 90 87 37 84 80 90 94 123 93 158 180 226 38 22 14 359 19 334 326 335 335 336 335 336 333 336 338 341 341 338 340 340 334 335 337 336 335 334 335
76 122 109 94 109 137 55 12 20 99 54 346 173 126 152 120 360 353 313 302 65 340 312 322 325 323 323 326 326 327 330 334 335 333 334 335 333 331 333 332 330 330 329 330
120 75 58 141 107 360 133 68 31 88 79 79 94 99 132 225 261 274 257 109 1 301 297 309 310 311 317 320 316 322 326 327 324 323 325 327 328 328 328 327 327 326 326 324
54 90 78 129 145 124 302 356 161 145 177 11 129 102 59 302 317 358 92 40 295 299 302 300 304 304 308 308 314 314 314 315 317 317 319 322 323 321 321 321 322 322 322 321
37 31 101 131 139 201 218 145 141 68 306 185 116 103 5 328 30 235 256 315 309 306 305 306 305 304 304 309 311 308 307 311 312 314 317 318 317 316 315 315 316 317 317 314
85 19 119 185 108 291 203 142 120 88 230 131 110 192 216 233 200 259 323 312 308 308 307 306 306 303 304 309 308 304 304 306 309 310 312 311 311 312 312 312 313 313 311 312
98 131 113 43 75 282 158 45 143 196 349 144 217 224 253 262 294 283 287 295 301 298 305 307 305 302 303 304 302 298 298 303 305 306 305 304 306 308 306 308 307 307 310 310
248 155 147 119 196 179 38 133 193 113 139 108 150 254 212 268 275 290 295 297 298 309 307 307 303 303 302 301 296 299 301 304 303 303 301 301 301 301 300 299 302 307 307 307
10 252 95 90 298 132 111 10 137 133 150 212 249 240 270 266 269 280 285 295 302 302 304 306 305 300 296 298 301 297 300 300 299 296 296 298 297 298 298 297 296 297 298 297
206 131 148 95 6 33 314 221 175 169 246 272 270 257 259 268 277 283 290 295 296 296 297 296 292 291 293 301 298 297 297 298 295 292 293 293 294 293 294 293 292 291 288 285
242 173 139 196 203 142 210 177 143 177 241 260 268 282 283 281 278 289 288 288 289 290 289 288 292 295 292 294 293 293 294 293 290 288 289 289 293 293 291 291 292 290 291 294